Regional Weather Roundup
Issued by NWS State College, PA

Home | Current Version | Previous Version | Graphics & Text | Print | Product List | Glossary Off
Versions: 1 2 3 4 5 6 7 8 9 10 11 12 13 14 15 16 17 18 19 20 21 22 23 24 25 26 27 28 29 30 31 32 33 34 35 36 37 38 39 40 41 42 43 44 45 46 47 48 49 50

000
ASUS41 KCTP 241610
RWRCTP

REGIONAL WEATHER ROUNDUP
NATIONAL WEATHER SERVICE STATE COLLEGE PA
1100 AM EST MON NOV 24 2014

Note: "fair" indicates few or no clouds below 12,000 feet with no
significant weather and/or obstructions to visibility.

* = STATION THAT DOES NOT REPORT PRECIPITATION /E.G. RAIN...SNOW...ETC/
    THUNDER OR FOG.

PAZ002>004-007>009-013>016-020>023-029>032-241700-
WESTERN PENNSYLVANIA

CITY           SKY/WX    TMP DP  RH WIND       PRES   REMARKS
ERIE           MOSUNNY   66  50  56 S23G41    29.26F
MEADVILLE      CLOUDY    61  50  67 S17G30    29.32F
FRANKLIN*      PTSUNNY   63  50  63 S22G40    29.39S
NEW CASTLE       N/A     65  49  56 S16G26    29.37F
BEAVER COUNTY  PTSUNNY   64  48  55 SW17G37   29.39F
BUTLER*        PTSUNNY   64  46  52 S21G31    29.42F
PITTSBURGH INT PTSUNNY   67  47  48 S21G36    29.41F
PITTSBURGH     MOSUNNY   67  43  41 SW24G36   29.43F
INDIANA*       MOSUNNY   68  48  49 SW16G30   29.50F
LATROBE        MOSUNNY   68  46  45 SW17G29   29.49S
WASHINGTON CO* PTSUNNY   66  46  48 S28G37    29.44F
$$

PAZ004>006-010>012-017>019-024>028-033>037-041-042-045-046-049>053-241700-
CENTRAL PENNSYLVANIA

CITY           SKY/WX    TMP DP  RH WIND       PRES   REMARKS
BRADFORD       CLOUDY    59  49  69 S14G26    29.41F
DUBOIS         PTSUNNY   64  46  52 SW17G35   29.44F
CLEARFIELD     PTSUNNY   64  50  60 S20G29    29.48F
JOHNSTOWN      MOSUNNY   62  48  60 S15G24    29.52S
ALTOONA        SUNNY     62  53  72 S18G26    29.54F
STATE COLLEGE  MOSUNNY   63  54  72 S16G23    29.53F
WILLIAMSPORT   PTSUNNY   65  53  65 S8G23     29.52F
SELINSGROVE    SUNNY     67  55  65 S12G20    29.56F
FT INDIANTOWN  CLOUDY    67  58  72 S17       29.60F
CAPITAL CITY   SUNNY     68  56  65 S21G30    29.60F
HARRISBURG     MOSUNNY   66  55  67 SW17G29   29.60F
YORK           SUNNY     67  57  70 S13G26    29.62S
$$

PAZ038>040-043-044-047-048-054-055-060>062-067>071-241700-
EASTERN PENNSYLVANIA

CITY           SKY/WX    TMP DP  RH WIND       PRES   REMARKS
SCRANTON       MOSUNNY   68  55  63 S20G36    29.55F
MOUNT POCONO     N/A     59  54  83 SW16G31   29.63F
ALLENTOWN      CLOUDY    69  58  67 SW13G21   29.62F
QUAKERTOWN*    CLOUDY    66  59  77 SW12G21   29.65F
READING        PTSUNNY   67  58  72 SW21G30   29.62F
LANCASTER      MOSUNNY   67  57  70 S22G29    29.62F
COATESVILLE    CLOUDY    66  59  77 S12G20    29.67F
POTTSTOWN      PTSUNNY   68  58  70 SW13G24   29.67F
BLUE BELL      CLOUDY    68  61  77 SW15      29.65F
DOYLESTOWN     PTSUNNY   66  59  78 S12G25    29.64F
WILLOW GROVE   NOT AVBL
NORTH PHILA    MOSUNNY   71  58  63 SW20G26   29.68F
PHILADELPHIA   PTSUNNY   70  60  70 SW21G30   29.67F
$$



USA.gov is the U.S. government's official web portal to all federal, state and local government web resources and services.